Tacoma Narrows, WA

6:28 PM PDT on April 26, 2018 (GMT -0700)
Tacoma Narrows

Weather History for KTIW - March, 2014

Change the Weather History Date:

Friday, March 21, 2014

  Actual Average Record
Temperature  
Mean Temperature 44 °F -  
Max Temperature 50 °F 50 °F 66 °F (2004)
Min Temperature 39 °F 39 °F 30 °F (2009)
Degree Days  
Heating Degree Days 20    
Moisture  
Dew Point 31 °F    
Average Humidity 62    
Maximum Humidity 83    
Minimum Humidity 31    
Precipitation  
Precipitation 0.00 in - - ()
Sea Level Pressure  
Sea Level Pressure 30.34 in    
Wind  
Wind Speed 7 mph (NNE)    
Max Wind Speed 14 mph    
Max Gust Speed 21 mph    
Visibility 10 miles    
Events      
Averages and records for this station are not official NWS values.
T = Trace of Precipitation, MM = Missing Value Source: NWS Daily Summary

Daily Weather History Graph

Daily Weather History Graph

Search for Another Location

Airport or City:

Astronomy

Mar. 21, 2014 Rise Set
Actual Time 7:11 AM PDT 7:24 PM PDT
Civil Twilight 6:40 AM PDT 7:55 PM PDT
Nautical Twilight 6:04 AM PDT 8:31 PM PDT
Astronomical Twilight 5:27 AM PDT 9:08 PM PDT
Moon 12:06 AM PDT (3/21) 9:49 AM PDT (3/21)
Length of Visible Light 13h 14m
Length of Day
12h 13m
Waning Gibbous, 74% of the Moon is Illuminated
Mar 21
Waning Gibbous
Mar 23
Last Quarter
Mar 30
New
Apr 7
First Quarter
Apr 15
Full

Hourly Weather History & Observations

Time (PDT) Temp. Windchill Dew Point Humidity Pressure Visibility Wind Dir Wind Speed Gust Speed Precip Events Conditions
12:53 AM 43.0 °F 39.5 °F 32.0 °F 65% 30.36 in 10.0 mi Variable 5.8 mph - 0.00 in   Mostly Cloudy
1:53 AM 42.1 °F 38.4 °F 33.1 °F 70% 30.37 in 10.0 mi NE 5.8 mph - N/A   Mostly Cloudy
2:51 AM 42.8 °F 38.6 °F 33.8 °F 70% 30.36 in 10.0 mi NNE 6.9 mph - N/A   Scattered Clouds
2:53 AM 42.1 °F 38.4 °F 33.1 °F 70% 30.36 in 10.0 mi NNE 5.8 mph - N/A   Partly Cloudy
3:53 AM 41.0 °F 35.8 °F 34.0 °F 76% 30.35 in 10.0 mi North 8.1 mph - N/A   Clear
4:53 AM 39.0 °F - 32.0 °F 76% 30.35 in 10.0 mi Calm Calm - N/A   Scattered Clouds
5:53 AM 39.9 °F 36.7 °F 33.1 °F 77% 30.35 in 10.0 mi North 4.6 mph - N/A   Clear
6:53 AM 39.0 °F 35.7 °F 33.1 °F 79% 30.35 in 10.0 mi North 4.6 mph - N/A   Clear
7:53 AM 39.0 °F 36.8 °F 34.0 °F 82% 30.35 in 10.0 mi NNE 3.5 mph - N/A   Clear
8:53 AM 39.9 °F 37.8 °F 35.1 °F 83% 30.35 in 10.0 mi NE 3.5 mph - N/A   Clear
9:53 AM 41.0 °F 36.4 °F 34.0 °F 76% 30.36 in 10.0 mi Variable 6.9 mph - N/A   Scattered Clouds
10:38 AM 44.1 °F 38.6 °F 35.1 °F 71% 30.35 in 10.0 mi NNW 10.4 mph - N/A   Mostly Cloudy
10:53 AM 43.0 °F 38.8 °F 34.0 °F 71% 30.36 in 10.0 mi NNE 6.9 mph - N/A   Overcast
11:53 AM 46.0 °F 41.0 °F 34.0 °F 63% 30.35 in 10.0 mi North 10.4 mph - N/A   Scattered Clouds
12:53 PM 46.9 °F - 33.1 °F 59% 30.35 in 10.0 mi NNW 10.4 mph - N/A   Scattered Clouds
1:53 PM 48.9 °F - 28.9 °F 46% 30.33 in 10.0 mi North 13.8 mph 20.7 mph N/A   Scattered Clouds
2:53 PM 48.9 °F - 25.0 °F 39% 30.32 in 10.0 mi North 10.4 mph - N/A   Scattered Clouds
3:53 PM 50.0 °F - 24.1 °F 36% 30.31 in 10.0 mi North 10.4 mph - N/A   Partly Cloudy
4:53 PM 50.0 °F - 19.9 °F 31% 30.31 in 10.0 mi NNE 10.4 mph - N/A   Scattered Clouds
5:53 PM 48.9 °F - 28.9 °F 46% 30.30 in 10.0 mi North 11.5 mph - N/A   Scattered Clouds
6:53 PM 46.9 °F - 30.0 °F 52% 30.31 in 10.0 mi North 9.2 mph - N/A   Scattered Clouds
7:53 PM 46.0 °F 41.4 °F 28.9 °F 51% 30.31 in 10.0 mi North 9.2 mph - N/A   Clear
8:53 PM 44.1 °F 40.1 °F 28.0 °F 53% 30.32 in 10.0 mi North 6.9 mph - N/A   Clear
9:53 PM 43.0 °F 38.8 °F 30.0 °F 60% 30.32 in 10.0 mi North 6.9 mph - N/A   Clear
10:53 PM 43.0 °F 37.7 °F 28.0 °F 56% 30.33 in 10.0 mi North 9.2 mph - N/A   Clear
11:53 PM 42.1 °F 40.2 °F 30.0 °F 62% 30.33 in 10.0 mi ENE 3.5 mph - N/A   Clear